Location: Le Rest
(48.1780°N, 3.2836°W)
Time: 17:17:33
(UTC+00:00)

Daily predictions for brighter satellites

Satellite Brightness Start Highest point End
(mag) Time Altitude Azimuth Time Altitude Azimuth Time Altitude Azimuth
CORIOLIS 4.2 17:33:14 10° SSE 17:38:35 80° ENE 17:44:00 10° NNW
Unknown 4.4 17:34:53 10° W 17:38:52 44° N 17:42:52 10° ENE
Unknown 4.4 17:36:22 10° W 17:40:21 44° N 17:44:20 10° ENE
Unknown 4.4 17:39:41 10° W 17:43:40 43° N 17:47:39 10° ENE
FALCON 9 DEB 3.2 17:40:45 10° WNW 17:44:13 71° NNE 17:47:42 10° ESE
Unknown 4.4 17:41:21 10° W 17:45:20 43° N 17:49:19 10° ENE
H-2A R/B 2.9 17:42:06 10° SSE 17:46:00 88° WSW 17:49:58 10° NNW
ATLAS 3B R/B 4.2 17:42:59 10° SE 17:46:03 14° ESE 17:49:05 10° ENE
Unknown 4.4 17:43:16 10° WNW 17:47:15 43° N 17:51:13 10° ENE
Unknown 4.4 17:44:45 10° WNW 17:48:43 43° N 17:52:42 10° ENE
Cosmos 2082 Rocket 2.6 17:43:35 10° NNW 17:49:03 44° NE 17:54:29 10° SE
Nadezhda 3 Rocket 4.3 17:43:04 10° SSW 17:49:22 78° W 17:55:47 10° N
Unknown 4.4 17:46:23 10° WNW 17:50:22 43° N 17:54:20 10° ENE
NOAA 12 4.1 17:45:48 10° SSE 17:51:04 75° ENE 17:56:25 10° NNW
Cosmos 1535 Rocket 4.5 17:45:00 10° N 17:51:13 79° E 17:57:20 10° SSE
CENTAUR R/B 4.0 17:49:40 10° SE 17:52:53 15° ESE 17:56:21 10° ENE
Unknown 4.4 17:49:03 10° WNW 17:52:55 41° N 17:56:44 10° ENE
Cosmos 1939 Rocket 4.4 17:50:45 10° ESE 17:53:30 18° ENE 17:56:17 10° NNE
Unknown 4.4 17:49:46 10° WNW 17:53:43 42° N 17:57:42 10° ENE
Unknown 4.4 17:51:23 10° WNW 17:55:21 42° N 17:59:15 10° ENE
Cosmos 1844 Rocket 3.8 17:50:49 10° SW 17:56:14 46° NW 18:01:39 10° NNE
Cosmos 2228 3.5 17:52:08 10° SSW 17:56:28 67° W 18:00:48 10° N
Unknown 4.4 17:53:05 10° WNW 17:57:03 42° N 18:00:52 11° ENE
BREEZE-M DEB (TANK) 4.0 17:52:39 10° SW 17:57:30 29° SSE 17:59:43 12° E
Falcon 9 debris 3.1 17:54:18 10° WNW 17:57:46 89° SW 18:01:13 10° ESE
Unknown 4.4 17:54:47 10° WNW 17:58:44 42° N 18:02:29 11° ENE
Unknown 3.1 17:58:02 10° WNW 18:01:35 79° NNE 18:05:02 10° ESE
Unknown 4.4 17:58:09 10° WNW 18:02:07 42° N 18:05:42 12° ENE
SKYMED 2 3.9 17:58:14 10° NNE 18:02:24 43° E 18:06:32 10° S
Unknown 4.4 17:58:40 10° WNW 18:02:35 41° N 18:06:04 12° ENE
Cosmos 921 Rocket 3.9 17:58:35 10° SW 18:02:59 55° WNW 18:07:22 10° NNE
Envisat 3.0 17:57:58 10° SSE 18:03:01 74° ENE 18:08:07 10° N
Unknown 4.4 17:59:08 10° WNW 18:03:06 42° N 18:06:38 12° ENE
YAOGAN 1 3.0 17:59:17 10° SE 18:03:19 40° ENE 18:07:23 10° N
Unknown 4.4 17:59:57 10° WNW 18:03:53 41° N 18:07:22 13° ENE
Unknown 4.4 18:01:43 10° WNW 18:05:41 41° N 18:09:06 13° ENE
Cosmos 1356 3.6 18:04:09 10° SSW 18:07:35 77° WNW 18:11:03 10° N
Shenzhou-11 Module 4.4 18:05:49 10° WSW 18:07:39 16° SSW 18:09:28 10° SSE
Cosmos 1703 3.3 18:03:55 10° N 18:07:52 83° W 18:11:46 10° S
Unknown 4.4 18:04:51 10° WNW 18:08:49 41° N 18:12:06 14° ENE
COSMOS 2406 4.2 18:03:28 10° NW 18:09:04 53° WSW 18:14:37 10° S
Cosmos 292 Rocket 4.0 18:04:52 10° SSW 18:09:36 74° WNW 18:14:23 10° NNE
Unknown 3.7 18:06:31 10° WNW 18:10:12 52° NNE 18:12:58 16° E
Cosmos 1726 Rocket 4.5 18:05:56 10° SSW 18:10:13 52° WNW 18:14:29 10° N
Cosmos 1898 Rocket 4.4 18:05:46 10° N 18:10:21 29° NE 18:14:40 11° ESE
COBE Rocket 3.9 18:06:55 10° NNE 18:12:06 75° ESE 18:17:07 10° S
Unknown 4.4 18:08:11 10° WNW 18:12:09 41° N 18:15:17 15° ENE
BREEZE M DEB (TANK) 2.4 18:10:20 10° W 18:12:33 52° SSW 18:17:09 10° ESE
H-2A R/B 3.8 18:11:50 12° ENE 18:13:10 14° NE 18:15:44 10° NNE
Cosmos 1726 2.4 18:10:09 10° SSW 18:13:47 69° W 18:17:26 10° N
Unknown 4.4 18:09:50 10° WNW 18:13:47 41° N 18:16:51 15° ENE
ATLAS 5 CENTAUR R/B 3.6 18:10:46 10° W 18:14:29 24° NNW 18:18:35 10° NNE
Unknown 4.4 18:11:31 10° WNW 18:15:29 41° N 18:18:28 16° ENE
Unknown 4.4 18:13:09 10° WNW 18:17:07 41° N 18:20:02 17° ENE
Cosmos 2100 Rocket 4.4 18:14:39 10° N 18:20:24 38° ENE 18:26:04 10° SE
USA 238 DEB 3.8 18:15:07 10° SSW 18:21:38 58° ESE 18:28:24 10° NE
USA 238 3.8 18:15:14 10° SSW 18:21:44 57° ESE 18:28:30 10° NE
Unknown 3.3 18:19:27 10° WNW 18:22:56 71° SSW 18:25:41 16° SE
USA 116 3.8 18:19:58 10° NNE 18:23:04 38° E 18:26:23 10° S
Unknown 4.4 18:19:52 10° WNW 18:23:50 42° N 18:26:27 19° ENE
Cosmos 1908 3.3 18:20:23 10° SSW 18:24:17 82° W 18:28:11 10° N
Cosmos 1461 3.5 18:21:00 10° NW 18:25:00 56° WSW 18:29:09 10° SSE
Unknown 4.4 18:21:34 10° WNW 18:25:32 42° N 18:28:04 19° ENE
Abrixas rocket 1.9 18:22:27 10° WSW 18:25:32 79° SSE 18:27:03 27° E
CZ-4 R/B 1.4 18:21:58 10° SSE 18:26:10 86° ENE 18:30:26 10° NNW
Unknown 4.4 18:23:13 10° WNW 18:27:11 42° N 18:29:39 20° ENE
Unknown 4.4 18:24:52 10° WNW 18:28:50 42° N 18:31:13 21° ENE
Unknown 4.4 18:26:31 10° WNW 18:30:29 42° N 18:32:48 21° ENE
Cosmos 2278 Rocket 2.2 18:25:01 10° SSW 18:30:42 87° WNW 18:36:26 10° NNE
ATLAS CENTAUR R/B 3.6 18:29:11 10° NNW 18:31:30 14° NNE 18:33:06 12° NE
Unknown 4.3 18:29:53 10° WNW 18:33:51 42° N 18:36:01 23° ENE
Starlink (trailer) 4.3 18:31:31 10° WNW 18:35:30 42° N 18:37:35 24° ENE
Cosmos 2297 4.2 18:30:46 10° S 18:35:56 37° ESE 18:41:09 10° NE
Cosmos 1153 Rocket 4.4 18:29:50 10° N 18:36:00 75° E 18:42:08 10° SSE
Unknown 4.3 18:33:14 10° WNW 18:37:13 42° N 18:39:13 24° ENE
Unknown 4.3 18:34:54 10° WNW 18:38:52 43° N 18:40:49 25° ENE
Cosmos 2058 Rocket 4.5 18:34:55 10° SW 18:39:01 40° WNW 18:43:09 10° N
CSL-04 Rocket 3.7 18:33:52 10° SSE 18:39:24 90° NW 18:44:54 10° NNW
SJ 16-02 2.2 18:36:24 10° N 18:40:14 29° ENE 18:41:02 27° ENE
YAOGAN 6 3.1 18:37:38 10° S 18:41:16 63° W 18:44:51 10° NNW
Cosmos 2084 Rocket 3.5 18:36:49 10° NW 18:41:16 86° SW 18:44:44 16° SE
Unknown 4.3 18:39:57 10° WNW 18:43:55 43° N 18:45:38 28° ENE
NOSS 3-2 (A) 3.4 18:38:22 10° SSW 18:44:05 65° SE 18:50:14 12° NE
Unknown 4.3 18:41:34 10° WNW 18:45:33 43° N 18:47:11 29° ENE
Ariane Rocket 3.1 18:40:46 10° SE 18:45:42 53° ENE 18:50:41 10° N
ARGOS 4.3 18:46:31 22° ENE 18:46:49 22° ENE 18:50:52 10° N
Unknown 4.3 18:43:15 10° WNW 18:47:14 44° N 18:48:48 30° ENE
Unknown 3.5 18:44:51 10° WNW 18:48:40 61° NNE 18:49:50 39° E
Unknown 4.3 18:44:52 10° WNW 18:48:53 44° N 18:50:24 30° ENE
EO 1 Delta rocket 4.0 18:44:36 10° S 18:49:13 79° W 18:54:29 10° NNW
HJ-1C 4.0 18:50:51 36° NE 18:50:51 36° NE 18:53:31 10° N
COSMO-SKYMED 1 3.0 18:46:12 10° N 18:50:31 63° WNW 18:54:49 10° SSW
Unknown 4.2 18:46:34 10° WNW 18:50:34 44° N 18:51:59 31° ENE
Unknown 4.2 18:48:21 10° WNW 18:52:21 45° N 18:53:41 33° NE
Cosmos 1892 3.9 18:49:59 10° N 18:52:12 25° NE 18:52:12 25° NE
Unknown 4.2 18:51:41 10° WNW 18:55:41 45° N 18:56:52 35° NE
Unknown 4.2 18:53:15 10° WNW 18:57:15 45° N 18:58:23 36° NE
NOAA 11 4.1 18:54:01 10° SSE 18:59:27 82° ENE 19:04:54 10° NNW
Cosmos 990 Rocket 4.0 18:54:17 10° NNW 18:59:27 60° ENE 19:02:11 27° SE
Cosmos 1833 Rocket 3.9 18:54:36 10° NW 18:59:54 43° WSW 19:05:10 10° S
Unknown 4.2 18:56:30 10° WNW 19:00:30 45° N 19:01:29 38° NE
Cosmos 1937 Rocket 3.7 18:55:39 10° NNW 19:00:39 48° ENE 19:02:14 36° ESE
ADEOS Rocket 4.1 18:55:13 10° NNE 19:01:46 30° E 19:03:33 27° ESE
Unknown 4.1 18:59:55 10° WNW 19:03:57 47° N 19:04:46 40° NE
Unknown 4.1 19:01:35 10° WNW 19:05:37 47° N 19:06:22 41° NE
Cosmos 1766 Rocket 3.9 19:02:37 10° N 19:06:20 42° ENE 19:06:20 42° ENE
Cosmos 1459 Rocket 3.9 19:01:00 10° N 19:07:16 76° E 19:13:34 10° SSE
Unknown 4.1 19:03:15 10° WNW 19:07:17 47° NNE 19:07:58 43° NE
Unknown 4.0 19:04:57 10° WNW 19:08:59 48° NNE 19:09:35 44° NE
NOSS 3-2 (C) 3.3 19:04:49 10° SSW 19:10:33 65° SE 19:14:29 24° NE
Cosmos 1076 Rocket 4.0 19:07:24 10° NNW 19:11:43 61° W 19:15:59 10° S
Unknown 4.0 19:08:17 10° WNW 19:12:19 49° NNE 19:12:47 46° NE
Lacrosse 5 3.1 19:07:45 10° WNW 19:12:25 38° SW 19:16:09 15° SSE
CZ-2C R/B 4.4 19:13:11 26° NE 19:13:11 26° NE 19:17:06 10° N
Cosmos 1300 2.9 19:09:05 10° SSW 19:12:53 68° W 19:16:42 10° N
Cosmos 2058 3.0 19:09:19 10° NNW 19:13:33 79° W 19:17:29 12° S
Unknown 4.0 19:09:59 10° WNW 19:14:03 50° NNE 19:14:25 48° NNE
Unknown 3.3 19:10:19 10° WNW 19:14:13 72° NNE 19:14:22 71° NE
Cosmos 2061 Rocket 3.9 19:08:54 10° N 19:15:07 65° ENE 19:19:53 17° SSE
Unknown 4.0 19:11:34 10° WNW 19:15:37 50° NNE 19:15:56 48° NNE
Unknown 4.0 19:13:11 10° WNW 19:17:14 50° NNE 19:17:29 49° NNE
Unknown 3.9 19:14:55 10° WNW 19:18:59 51° NNE 19:19:09 50° NNE
Unknown 4.0 19:16:24 10° WNW 19:20:27 50° NNE 19:20:34 50° NNE
Okean 3 Rocket 3.4 19:15:58 10° N 19:20:32 79° E 19:21:40 50° SSE
CZ-2D R/B 4.1 19:18:14 10° S 19:21:59 51° W 19:25:48 10° NNW
MOS 1 4.1 19:19:18 27° SSE 19:22:28 74° ENE 19:28:08 10° NNW
SL-27 R/B 4.5 19:20:03 10° N 19:21:07 18° N 19:21:07 18° N
Unknown 4.0 19:19:42 10° WNW 19:23:44 51° NNE 19:23:44 51° NNE
Unknown 4.0 19:21:22 10° WNW 19:25:20 51° N 19:25:20 51° N
Cosmos 1763 Rocket 3.5 19:20:19 10° S 19:25:16 56° ESE 19:25:16 56° ESE
Resurs 01 Rocket 4.0 19:29:46 12° NNE 19:29:46 12° NNE 19:30:15 10° NNE
Unknown 4.0 19:23:15 10° WNW 19:27:08 53° N 19:27:08 53° N
SJ-11-01 4.1 19:27:10 68° E 19:27:20 69° ENE 19:32:00 10° N
Cosmos 1939 Rocket 3.7 19:24:09 10° S 19:28:03 50° W 19:32:03 10° NNW
Unknown 4.0 19:24:44 10° WNW 19:28:34 52° N 19:28:34 52° N
Cosmos 2151 3.0 19:26:02 10° N 19:29:51 66° NNE 19:29:51 66° NNE
Unknown 4.1 19:26:22 10° WNW 19:30:08 52° N 19:30:08 52° N
Unknown 3.9 19:28:31 10° WNW 19:32:02 57° NNW 19:32:02 57° NNW
Cosmos 2082 Rocket 3.7 19:27:55 10° NW 19:33:03 35° WSW 19:38:07 10° S
Unknown 4.1 19:29:44 10° WNW 19:33:21 51° NNW 19:33:21 51° NNW
IRS-1A Rocket 4.4 19:29:55 11° S 19:35:12 71° WSW 19:40:45 10° NNW
Unknown 4.2 19:31:20 10° WNW 19:34:54 51° NNW 19:34:54 51° NNW
ATLAS 3B R/B 2.5 19:28:52 10° SSW 19:35:31 67° SE 19:37:32 45° ENE
SPOT 3 Rocket 3.6 19:36:39 57° NE 19:36:39 57° NE 19:41:21 10° N
Cosmos 2173 Rocket 4.2 19:30:39 10° NNW 19:36:51 68° W 19:42:56 10° S
Unknown 4.2 19:33:02 10° WNW 19:36:31 50° NNW 19:36:31 50° NNW
Unknown 4.3 19:34:43 10° WNW 19:38:08 49° NNW 19:38:08 49° NNW
CENTAUR R/B 2.4 19:36:08 10° SSW 19:42:07 76° SE 19:44:14 46° NE
Unknown 4.4 19:38:04 10° WNW 19:41:21 48° NNW 19:41:21 48° NNW
Unknown 4.4 19:38:21 10° WNW 19:41:33 48° NW 19:41:33 48° NW
Cosmos 1864 Rocket 4.3 19:36:37 10° N 19:42:48 78° E 19:44:33 49° SSE
Unknown 4.4 19:39:02 10° WNW 19:42:17 48° NNW 19:42:17 48° NNW
Unknown 4.4 19:39:48 10° WNW 19:43:02 48° NW 19:43:02 48° NW
Unknown 4.5 19:41:35 10° WNW 19:44:45 47° NW 19:44:45 47° NW
Cosmos 44 3.4 19:41:33 10° SW 19:46:26 68° NW 19:46:50 64° NNW
Cosmos 1802 Rocket 4.3 19:42:11 10° NNW 19:48:35 68° W 19:54:53 10° S
Cosmos 2123 Rocket 3.8 19:45:05 10° S 19:51:22 79° E 19:57:38 10° NNE
H-2A R/B 2.3 19:52:28 60° NNE 19:52:28 60° NNE 19:57:03 10° N
Cosmos 1898 Rocket 4.3 19:47:35 10° NNW 19:52:40 49° WSW 19:55:01 29° SSW
Cosmos 2233 Rocket 4.0 19:51:50 10° N 19:57:25 62° NE 19:57:25 62° NE
Cosmos 1725 Rocket 4.0 19:54:11 10° N 20:00:29 81° W 20:02:16 50° S
ATLAS 5 CENTAUR R/B 4.2 19:58:04 10° NW 20:00:59 15° N 20:01:57 15° NNE
ATLAS CENTAUR R/B 3.6 20:07:28 10° NNW 20:09:18 21° NNW 20:09:18 21° NNW
Cosmos 2278 Rocket 4.5 20:11:28 10° W 20:15:39 20° NW 20:19:50 10° N
SJ 16-02 3.0 20:14:54 10° NW 20:18:03 31° W 20:18:03 31° W
ARGOS 4.0 20:28:03 47° NW 20:28:03 47° NW 20:32:00 10° NNW
ADEOS Rocket 3.7 20:40:11 10° N 20:47:46 65° WNW 20:50:26 41° SW
ATLAS 3B R/B 4.0 21:20:27 10° W 21:24:50 33° WNW 21:24:50 33° WNW
CENTAUR R/B 4.1 21:27:36 10° W 21:31:29 31° WNW 21:31:29 31° WNW
